TIME,DELAY(SENSOR),PRES,OXYGEN,RAWTEMP,T(OPTODE),TCPHASE,FLUOR,BETA(BETA700),BETA(BETA412),BETA(BETA440),CDOM,C(CSC),ED(ED411.90),ED(ED443.80),ED(ED489.40),ED(ED554.70),LU(LU412.20),LU(LU443.80),LU(LU489.40),LU(LU555.00),COMP,TILTX,TILTY,CHECK
1339711730,5801,840.6799926757812000,178.6506958007812500,469.5993957519531000,8.8287763595581050,39.3322601318359400,52,107,102,79,74,15459,2147446756,2147791780,2147578432,2147823542,2147306276,2147454180,2147756653,2148274953,1559,6,14,36908
1339715326,5802,5.6999998092651370,215.7660980224609400,528.1652832031250000,6.9957242012023930,38.0275306701660160,50,107,104,78,76,15455,2147434477,2147796580,2147581796,2147831259,2147308818,2147444854,2147766464,2148280082,2925,6,15,26203
1339718926,5805,9.0000000000000000,225.1186065673828000,537.0493774414062000,6.7155628204345700,37.6647109985351560,51,106,103,78,76,15430,2147434752,2147800082,2147585362,2147833600,2147305645,2147452708,2147768155,2148277869,193,6,14,33442
1339722526,5804,9.3000001907348630,226.1441040039062500,538.2354125976562000,6.6781182289123535,37.6305198669433600,52,105,104,80,76,15448,2147435776,2147799442,2147586742,2147835776,2147309714,2147446710,2147770944,2148282861,558,6,15,17425
1339726126,5802,941.0000000000000000,227.6204071044922000,538.3255004882812000,6.6752738952636720,37.5522499084472660,52,107,102,78,77,15443,2147436681,2147798518,2147588288,2147834267,2147305874,2147449645,2147769216,2148280164,509,6,14,22410
1339729726,5805,9.6999998092651370,228.7138061523437500,540.7739257812500000,6.5979351997375490,37.5370292663574200,51,107,106,79,77,15442,2147434642,2147797888,2147587529,2147836178,2147306578,2147454573,2147765933,2148283821,3073,6,15,34753
1339733326,5804,9.6999998092651370,230.4799041748047000,542.5537719726562000,6.5416808128356930,37.4747810363769500,51,107,103,78,77,15441,2147431012,2147795620,2147586733,2147832329,2147304960,2147447424,2147768932,2148280914,3299,6,15,2571
1339736926,5804,10.8000001907348630,231.4535064697265600,542.9879760742188000,6.5279560089111330,37.4305992126464840,51,106,102,77,76,15439,2147431744,2147797878,2147588004,2147836233,2147305344,2147451099,2147775506,2148283318,213,6,15,13037
1339740526,5804,9.0000000000000000,233.2830047607422000,545.7183837890625000,6.4416079521179200,37.3833808898925800,51,108,105,80,77,15439,2147428315,2147795483,2147585334,2147833106,2147304539,2147447616,2147771117,2148277906,505,6,15,36223
1339744126,5804,10.6000003814697270,231.7745971679687500,546.2160034179688000,6.4258651733398440,37.4715995788574200,50,108,102,80,76,15435,2147430957,2147801892,2147584192,2147836763,2147307017,2147449243,2147769142,2148279515,3195,6,15,37057
1339747726,5804,954.0000000000000000,233.1358947753906200,547.2260742187500000,6.3938999176025390,37.4184799194335940,50,105,102,79,76,15429,2147432786,2147800886,2147587419,2147835456,2147305810,2147450313,2147773933,2148280749,121,6,15,21839
1339751326,5803,9.5000000000000000,232.6519012451172000,547.5610961914062000,6.3832988739013670,37.4500694274902340,51,106,102,79,76,15423,2147437302,2147797010,2147588205,2147835364,2147302134,2147449289,2147771072,2148279506,3590,6,15,15333
1339754926,5803,9.5000000000000000,234.0867004394531200,547.7001953125000000,6.3788971900939940,37.3770103454589840,51,111,104,79,76,15424,2147430985,2147798308,2147585654,2147831798,2147305444,2147451218,2147774308,2148283629,160,6,15,45388
1339758526,5803,1061.0000000000000000,234.0478057861328000,546.0114746093750000,6.4323348999023440,37.3485794067382800,51,107,103,77,76,15426,2147431259,2147796580,2147586624,2147833947,2147305810,2147447433,2147773193,2148279853,3219,6,15,19228
1339762126,5804,10.8000001907348630,231.7516021728515600,543.9398803710938000,6.4978580474853520,37.4322204589843750,51,107,102,79,76,15429,2147431460,2147799268,2147586998,2147832173,2147309558,2147448877,2147769654,2148281947,3558,6,15,34451
1339765726,5805,1075.0000000000000000,231.0982971191406200,544.7409057617188000,6.4725270271301270,37.4810485839843750,51,106,103,79,76,15429,2147432091,2147801819,2147587117,2147833984,2147305389,2147449490,2147774592,2148280832,132,6,15,19502
1339769326,5805,1107.0000000000000000,231.7664947509765600,544.2396240234375000,6.4883818626403810,37.4369697570800800,52,109,103,79,75,15430,2147432749,2147796635,2147587766,2147831341,2147306514,2147450752,2147772982,2148282139,2840,6,15,26606
1339772926,5807,10.1000003814697270,231.0048065185547000,545.0504150390625000,6.4627380371093750,37.4915390014648440,51,106,103,78,77,15421,2147431003,2147798262,2147587117,2147830893,2147304420,2147452041,2147770870,2148282422,53,6,14,24066
1339776526,5804,10.8999996185302730,232.6221008300781200,545.1832885742188000,6.4585318565368650,37.4088287353515600,51,107,103,79,77,15429,2147432448,2147796452,2147588333,2147831707,2147303716,2147446774,2147772562,2148280676,3438,6,15,51466
1339780126,5802,10.8999996185302730,232.7933044433593800,545.5800781250000000,6.4459800720214840,37.4069404602050800,51,108,103,79,77,15425,2147433993,2147800704,2147587693,2147830948,2147307638,2147448082,2147773110,2148278043,2904,6,15,37766
1339783726,5802,10.1000003814697270,233.5773010253906200,546.3801879882812000,6.4206700325012210,37.3804016113281250,51,107,104,78,77,15421,2147432219,2147800859,2147585142,2147834843,2147303076,2147450733,2147771904,2148276617,3457,6,15,60512
1339787326,5803,10.3999996185302730,233.1941986083984400,546.7836303710938000,6.4079060554504395,37.4068603515625000,52,106,104,79,76,15425,2147433792,2147798902,2147586368,2147831396,2147306496,2147449097,2147772105,2148279881,3484,6,15,51041
1339790926,5804,10.3000001907348630,233.8847961425781200,546.4791259765625000,6.4175400733947750,37.3655204772949200,51,108,102,78,77,15423,2147431817,2147799936,2147586377,2147833654,2147308013,2147447936,2147772242,2148278756,219,6,15,22631
1339794526,5803,10.1000003814697270,233.8222961425781200,546.4008178710938000,6.4200167655944820,37.3672790527343750,51,109,104,78,76,15422,2147431862,2147801901,2147585810,2147830848,2147305764,2147448411,2147774262,2148280950,355,6,15,26584
1339798126,5804,1028.0000000000000000,232.7221069335937500,547.0651855468750000,6.3989930152893070,37.4377212524414060,52,105,103,78,77,15422,2147433499,2147800301,2147585389,2147835657,2147306953,2147451510,2147772041,2148281408,3569,6,14,42770
1339801726,5803,1071.0000000000000000,233.7633972167968800,546.7802734375000000,6.4080100059509280,37.3772888183593750,51,115,104,78,75,15423,2147433920,2147799149,2147588013,2147832256,2147308608,2147454281,2147768758,2148282560,3200,6,15,43682
1339805326,5805,11.8000001907348630,233.8193054199218800,546.5551757812500000,6.4151310920715330,37.3698387145996100,51,106,102,79,76,15422,2147430592,2147796845,2147590034,2147833124,2147305910,2147447817,2147767808,2148281225,291,6,15,5468
1339808926,5806,1076.0000000000000000,232.2940979003906200,546.3435058593750000,6.4218311309814450,37.4466705322265600,50,107,103,78,77,15420,2147433133,2147795602,2147586157,2147833179,2147306724,2147452013,2147771593,2148280594,728,6,14,49612
1339812526,5804,1099.0000000000000000,233.5747985839843800,546.2114257812500000,6.4260082244873050,37.3764381408691400,52,108,104,79,77,15420,2147433956,2147797769,2147587090,2147831872,2147301558,2147451684,2147769526,2148282230,435,6,15,29599
1339816126,5805,1011.0000000000000000,230.9109039306640600,546.3029785156250000,6.4231109619140625,37.5192298889160160,51,105,103,81,76,15418,2147431405,2147799643,2147585088,2147834258,2147305892,2147449819,2147772059,2148281435,54,6,15,18048
1339819726,5803,1081.0000000000000000,231.4606018066406200,547.0092773437500000,6.4007630348205570,37.5033798217773440,50,106,103,79,77,15421,2147434898,2147798372,2147586459,2147832265,2147303204,2147447643,2147770560,2148280832,216,6,15,996
1339823326,5803,1122.0000000000000000,231.5740966796875000,546.3095703125000000,6.4229049682617190,37.4843101501464840,52,104,102,79,77,15413,2147434651,2147798409,2147586724,2147833270,2147307593,2147446464,2147771437,2148283209,266,6,15,20821
1339826926,5804,1133.0000000000000000,230.6826019287109400,545.6964721679688000,6.4423007965087890,37.5208587646484400,51,107,103,78,76,15412,2147431277,2147799862,2147588160,2147831698,2147305060,2147450038,2147772553,2148282221,67,6,15,63454
1339830526,5802,11.1000003814697270,230.9517974853515600,546.3065185546875000,6.4229998588562010,37.5168113708496100,51,106,103,78,76,15415,2147433097,2147798555,2147586395,2147834057,2147304886,2147447954,2147772754,2148281846,343,6,15,9381
1339834126,5804,10.1000003814697270,232.2720947265625000,547.4356079101562000,6.3872699737548830,37.4679603576660160,51,108,104,78,77,15410,2147434139,2147797787,2147587419,2147832018,2147304768,2147449673,2147772754,2148281746,120,6,15,18842
1339837726,5805,10.8000001907348630,233.8307952880859400,547.9957885742188000,6.3695368766784670,37.3953018188476560,51,105,101,79,75,15411,2147433691,2147798720,2147584886,2147835364,2147305408,2147449106,2147772955,2148281773,377,6,15,44937
1339841326,5801,10.8999996185302730,231.1831054687500000,547.3402709960938000,6.3902850151062010,37.5240287780761700,51,114,103,78,77,15410,2147429778,2147799506,2147585453,2147835794,2147306971,2147447753,2147768420,2148279963,3249,6,15,41761
1339844926,5805,1044.0000000000000000,233.7062988281250000,548.7426757812500000,6.3458981513977050,37.4155006408691400,51,105,102,78,76,15405,2147429504,2147801124,2147585865,2147835757,2147307812,2147450706,2147770569,2148281344,4,6,14,27871
1339848526,5804,11.8000001907348630,234.1761016845703000,548.4989013671875000,6.3536148071289060,37.3867492675781250,51,107,104,79,76,15409,2147433408,2147799094,2147586377,2147836187,2147306157,2147451840,2147766619,2148280109,613,6,14,36491
1339852126,5806,11.3999996185302730,233.2071990966797000,546.8588256835938000,6.4055252075195310,37.4083518981933600,51,106,104,79,77,15402,2147434038,2147800621,2147590720,2147833782,2147307236,2147451218,2147769499,2148281106,52,6,15,11651
1339855556,5803,11.0000000000000000,232.9248962402343800,546.4495239257812000,6.4184761047363280,37.4152908325195300,51,105,106,78,77,15404,2147435766,2147802422,2147585106,2147833590,2147307693,2147450294,2147766400,2148280137,3263,6,15,42441
